Location: Follega
(52.8850°N, 5.7362°E)
Time: 02:12:30
(UTC+00:00)

SL-27 R/B - Visible Passes

Search period start: 23 September 2020 00:00
Search period end: 03 October 2020 00:00
Orbit: 419 x 471 km, 74.7° (Epoch: 22 September)

Date Brightness Start Highest point End Pass type
(mag) Time Alt. Az. Time Alt. Az. Time Alt. Az.
23 Sep 5.6 21:12:34 10° N 21:12:58 12° N 21:12:58 12° N visible
24 Sep 5.4 20:35:34 10° N 20:35:59 11° NNE 20:35:59 11° NNE visible
25 Sep 5.8 21:32:16 10° NNW 21:32:33 12° NNW 21:32:33 12° NNW visible
26 Sep 5.4 20:54:55 10° N 20:55:36 14° N 20:55:36 14° N visible
27 Sep 5.1 20:17:44 10° N 20:18:39 15° NNE 20:18:39 15° NNE visible
28 Sep 5.0 19:40:50 10° NNE 19:41:43 13° NNE 19:41:43 13° NNE visible
28 Sep 5.7 21:14:48 10° NNW 21:15:16 13° NNW 21:15:16 13° NNW visible
29 Sep 5.1 20:37:20 10° NNW 20:38:21 17° N 20:38:21 17° N visible
30 Sep 4.7 20:00:02 10° N 20:01:28 19° N 20:01:28 19° N visible
01 Oct 4.6 19:22:54 10° N 19:24:35 17° NNE 19:24:35 17° NNE visible
01 Oct 5.6 20:57:25 10° NNW 20:58:08 15° NW 20:58:08 15° NW visible
02 Oct 4.8 18:46:07 10° NNE 18:47:43 12° NE 18:47:43 12° NE visible
02 Oct 4.8 20:19:51 10° NNW 20:21:16 22° NNW 20:21:16 22° NNW visible
